Hourly Weather Ruposy

Today, 16 April, Friday

Time Temperature Precipitation Wind Pressure Humidity
00:00 +3°C° 0.3 mm 5 mps 748 mmHg 84%
01:00 +3°C° 0.3 mm 5 mps 748 mmHg 85%
02:00 +3°C° 0.3 mm 5 mps 748 mmHg 86%
03:00 +2°C° 0 mm 5 mps 748 mmHg 87%
04:00 +2°C° 0 mm 5 mps 748 mmHg 88%
05:00 +2°C° 0 mm 5 mps 747 mmHg 89%
06:00 +2°C° 0.1 mm 5 mps 748 mmHg 88%
07:00 +3°C° 0.1 mm 5 mps 748 mmHg 87%
08:00 +3°C° 0.1 mm 5 mps 748 mmHg 86%
09:00 +5°C° 0 mm 5 mps 748 mmHg 85%
10:00 +5°C° 0 mm 5 mps 748 mmHg 84%
11:00 +6°C° 0 mm 5 mps 749 mmHg 83%
12:00 +7°C° 0 mm 5 mps 749 mmHg 82%
13:00 +8°C° 0 mm 5 mps 749 mmHg 80%
14:00 +9°C° 0 mm 5 mps 749 mmHg 78%
15:00 +9°C° 0 mm 5 mps 749 mmHg 79%
16:00 +9°C° 0 mm 5 mps 749 mmHg 79%
17:00 +10°C° 0 mm 4 mps 749 mmHg 80%
18:00 +10°C° 0 mm 4 mps 749 mmHg 81%
19:00 +8°C° 0 mm 4 mps 749 mmHg 82%
20:00 +8°C° 0 mm 4 mps 750 mmHg 84%
21:00 +8°C° 0 mm 4 mps 750 mmHg 84%
22:00 +7°C° 0 mm 4 mps 750 mmHg 84%
23:00 +7°C° 0 mm 5 mps 750 mmHg 83%

Tomorrow, 17 April, Saturday

Time Temperature Precipitation Wind Pressure Humidity
00:00 +6°C° 0 mm 4 mps 750 mmHg 84%
01:00 +6°C° 0 mm 4 mps 750 mmHg 84%
02:00 +5°C° 0 mm 4 mps 750 mmHg 84%
03:00 +5°C° 0 mm 4 mps 750 mmHg 83%
04:00 +5°C° 0 mm 4 mps 750 mmHg 82%
05:00 +5°C° 0 mm 4 mps 750 mmHg 81%
06:00 +5°C° 0 mm 4 mps 750 mmHg 80%
07:00 +5°C° 0 mm 4 mps 751 mmHg 78%
08:00 +6°C° 0 mm 4 mps 751 mmHg 77%
09:00 +7°C° 0 mm 4 mps 751 mmHg 74%
10:00 +8°C° 0 mm 4 mps 751 mmHg 71%
11:00 +11°C° 0 mm 4 mps 752 mmHg 68%
12:00 +11°C° 0 mm 4 mps 752 mmHg 66%
13:00 +12°C° 0 mm 4 mps 752 mmHg 64%
14:00 +13°C° 0 mm 4 mps 752 mmHg 62%
15:00 +13°C° 0 mm 4 mps 752 mmHg 64%
16:00 +12°C° 0 mm 3 mps 752 mmHg 67%
17:00 +12°C° 0 mm 3 mps 751 mmHg 70%
18:00 +11°C° 0 mm 3 mps 752 mmHg 72%
19:00 +11°C° 0 mm 3 mps 752 mmHg 74%
20:00 +10°C° 0 mm 3 mps 752 mmHg 76%
21:00 +9°C° 0 mm 3 mps 752 mmHg 78%
22:00 +8°C° 0 mm 3 mps 752 mmHg 80%
23:00 +7°C° 0 mm 3 mps 752 mmHg 82%

Day after tomorrow, 18 April, Sunday

Time Temperature Precipitation Wind Pressure Humidity
00:00 +7°C° 0 mm 3 mps 752 mmHg 81%
01:00 +5°C° 0 mm 3 mps 752 mmHg 80%
02:00 +4°C° 0 mm 3 mps 752 mmHg 79%
03:00 +4°C° 0 mm 3 mps 752 mmHg 79%
04:00 +3°C° 0 mm 3 mps 752 mmHg 80%
05:00 +3°C° 0 mm 3 mps 752 mmHg 80%
06:00 +4°C° 0 mm 3 mps 752 mmHg 74%
07:00 +5°C° 0 mm 3 mps 752 mmHg 67%
08:00 +7°C° 0 mm 4 mps 752 mmHg 60%
09:00 +8°C° 0 mm 4 mps 752 mmHg 55%
10:00 +10°C° 0 mm 4 mps 752 mmHg 49%
11:00 +12°C° 0 mm 4 mps 752 mmHg 44%
12:00 +12°C° 0 mm 4 mps 752 mmHg 42%
13:00 +13°C° 0 mm 4 mps 752 mmHg 40%
14:00 +13°C° 0 mm 4 mps 752 mmHg 38%
15:00 +13°C° 0 mm 4 mps 752 mmHg 40%
16:00 +13°C° 0 mm 4 mps 752 mmHg 42%
17:00 +13°C° 0 mm 3 mps 751 mmHg 43%
18:00 +11°C° 0 mm 3 mps 752 mmHg 51%
19:00 +9°C° 0 mm 2 mps 752 mmHg 58%
20:00 +7°C° 0 mm 2 mps 752 mmHg 66%
21:00 +7°C° 0 mm 2 mps 752 mmHg 68%
22:00 +7°C° 0 mm 2 mps 752 mmHg 69%
23:00 +7°C° 0 mm 2 mps 752 mmHg 71%

19 April, Monday

Time Temperature Precipitation Wind Pressure Humidity
00:00 +6°C° 0 mm 2 mps 753 mmHg 73%
01:00 +6°C° 0 mm 2 mps 753 mmHg 75%
02:00 +6°C° 0 mm 2 mps 753 mmHg 77%
03:00 +6°C° 0 mm 2 mps 753 mmHg 78%
04:00 +5°C° 0 mm 2 mps 753 mmHg 79%
05:00 +5°C° 0 mm 2 mps 753 mmHg 79%
06:00 +6°C° 0 mm 2 mps 753 mmHg 73%
07:00 +7°C° 0 mm 3 mps 753 mmHg 68%
08:00 +9°C° 0 mm 3 mps 753 mmHg 62%
09:00 +10°C° 0 mm 3 mps 753 mmHg 56%
10:00 +11°C° 0 mm 3 mps 753 mmHg 51%
11:00 +12°C° 0 mm 4 mps 753 mmHg 46%
12:00 +13°C° 0 mm 4 mps 753 mmHg 44%
13:00 +13°C° 0 mm 4 mps 752 mmHg 43%
14:00 +14°C° 0 mm 4 mps 752 mmHg 41%
15:00 +13°C° 0 mm 4 mps 752 mmHg 45%
16:00 +12°C° 0 mm 3 mps 752 mmHg 50%
17:00 +12°C° 0 mm 3 mps 752 mmHg 54%
18:00 +11°C° 0 mm 3 mps 752 mmHg 59%
19:00 +9°C° 0 mm 3 mps 752 mmHg 64%
20:00 +8°C° 0 mm 3 mps 752 mmHg 68%
21:00 +8°C° 0 mm 3 mps 752 mmHg 71%
22:00 +7°C° 0 mm 2 mps 752 mmHg 74%
23:00 +7°C° 0 mm 2 mps 751 mmHg 77%

20 April, Tuesday

Time Temperature Precipitation Wind Pressure Humidity
00:00 +7°C° 0 mm 2 mps 751 mmHg 77%
01:00 +7°C° 0 mm 2 mps 751 mmHg 77%
02:00 +6°C° 0 mm 2 mps 751 mmHg 77%
03:00 +5°C° 0 mm 3 mps 751 mmHg 78%
04:00 +5°C° 0 mm 3 mps 750 mmHg 79%
05:00 +5°C° 0 mm 3 mps 750 mmHg 80%
06:00 +5°C° 0 mm 3 mps 750 mmHg 75%
07:00 +7°C° 0 mm 3 mps 749 mmHg 70%
08:00 +6°C° 0 mm 4 mps 749 mmHg 66%
09:00 +7°C° 0 mm 4 mps 749 mmHg 61%
10:00 +7°C° 0 mm 4 mps 748 mmHg 56%
11:00 +8°C° 0 mm 4 mps 748 mmHg 51%
12:00 +10°C° 0 mm 4 mps 747 mmHg 50%
13:00 +10°C° 0 mm 4 mps 747 mmHg 48%
14:00 +10°C° 0 mm 4 mps 746 mmHg 47%
15:00 +10°C° 0 mm 4 mps 745 mmHg 47%
16:00 +10°C° 0 mm 4 mps 745 mmHg 47%
17:00 +10°C° 0 mm 4 mps 744 mmHg 48%
18:00 +8°C° 0 mm 4 mps 744 mmHg 53%
19:00 +7°C° 0 mm 4 mps 743 mmHg 58%
20:00 +5°C° 0 mm 4 mps 743 mmHg 63%
21:00 +5°C° 0 mm 4 mps 742 mmHg 66%
22:00 +4°C° 0 mm 4 mps 741 mmHg 69%
23:00 +4°C° 0 mm 4 mps 741 mmHg 72%

21 April, Wednesday

Time Temperature Precipitation Wind Pressure Humidity
00:00 +3°C° 0.3 mm 4 mps 740 mmHg 80%
01:00 +1°C° 0.3 mm 4 mps 740 mmHg 87%
02:00 +1°C° 0.3 mm 4 mps 739 mmHg 95%
03:00 0°C° 0.2 mm 4 mps 738 mmHg 95%
04:00 +1°C° 0.2 mm 3 mps 738 mmHg 95%
05:00 +1°C° 0.2 mm 3 mps 737 mmHg 96%
06:00 +1°C° 0.1 mm 3 mps 737 mmHg 96%
07:00 +1°C° 0.1 mm 3 mps 737 mmHg 96%
08:00 +1°C° 0.1 mm 3 mps 736 mmHg 96%
09:00 +1°C° 0.2 mm 3 mps 736 mmHg 96%
10:00 +2°C° 0.2 mm 3 mps 736 mmHg 96%
11:00 +3°C° 0.2 mm 2 mps 736 mmHg 97%
12:00 +3°C° 0.2 mm 2 mps 736 mmHg 97%
13:00 +3°C° 0.2 mm 2 mps 736 mmHg 97%
14:00 +2°C° 0.2 mm 2 mps 736 mmHg 97%
15:00 +2°C° 0.5 mm 2 mps 736 mmHg 97%
16:00 +2°C° 0.5 mm 2 mps 736 mmHg 97%
17:00 +2°C° 0.5 mm 2 mps 736 mmHg 98%
18:00 +2°C° 0.2 mm 2 mps 736 mmHg 97%
19:00 +2°C° 0.2 mm 2 mps 737 mmHg 97%
20:00 +2°C° 0.2 mm 2 mps 737 mmHg 96%
21:00 +2°C° 0 mm 2 mps 737 mmHg 96%
22:00 +2°C° 0 mm 2 mps 737 mmHg 96%
23:00 +2°C° 0 mm 2 mps 737 mmHg 95%
Show more